Regional Weather Roundup
Issued by NWS

Home | Current Version | Previous Version | Graphics & Text | Print | Product List | Glossary On
Versions: 1 2 3 4 5 6 7 8 9 10 11 12 13 14 15 16 17 18 19 20 21 22 23 24 25 26 27 28 29 30 31 32 33 34 35 36 37 38 39 40 41 42 43 44 45 46 47 48 49 50
000
ASUS43 KDTX 281610
RWRMI
MICHIGAN HOURLY REGIONAL WEATHER ROUNDUP
NATIONAL WEATHER SERVICE DETROIT/PONTIAC MI
1200 PM EDT THU JUL 28 2016

NOTE: "FAIR" INDICATES FEW OR NO CLOUDS BELOW 12,000 FEET WITH NO
SIGNIFICANT WEATHER AND/OR OBSTRUCTION TO VISIBILITY.

MIZ047>049-052>055-059>063-066>070-074>076-081>083-281700-
SOUTHEAST LOWER MICHIGAN

CITY           SKY/WX    TMP DP  RH WIND       PRES   REMARKS
ADRIAN         CLOUDY    81  64  56 E8        29.92F
ALMA           PTSUNNY   76  66  70 NE10      29.96F
BAD AXE        SUNNY     77  61  58 NE10      29.96F
CARO           CLOUDY    78  62  58 NE7       29.95F
DETROIT CITY   CLOUDY    81  67  62 NE6       29.92F
DETROIT        CLOUDY    82  65  56 E7        29.92S
FLINT          MOSUNNY   83  62  49 NE8       29.94S
GROSSE ILE     CLOUDY    80  68  67 N8        29.91S
HILLSDALE      CLOUDY    77  67  71 NE3       29.94R
HOWELL         CLOUDY    78  62  57 NE7       29.95S

CITY           SKY/WX    TMP DP  RH WIND       PRES   REMARKS
JACKSON        PTSUNNY   78  66  66 VRB5      29.94F
LAMBERTVILLE   PTSUNNY   81  69  68 NE6       29.92S
LANSING        PTSUNNY   79  64  60 E8        29.95F
LAPEER         FAIR      78  63  59 NE7       29.95S
MASON          CLOUDY    77  64  63 NE7       29.94F
MONROE         CLOUDY    78  71  78 NE3       29.90F
MT. CLEMENS    PTSUNNY   79  68  69 N8        29.90
PONTIAC        CLOUDY    78  62  57 E6        29.93F
PORT HOPE        N/A     74  63  68 N10       29.96S
PORT HURON     PTSUNNY   77  68  73 N12       29.93F
TRI CITIES     CLOUDY    76  63  64 NE13      29.97S
MIDLAND        FAIR      76  60  55 E9        29.96F
TROY           PTSUNNY   81  64  57 N7        29.94F
SAGINAW HB     CLOUDY    79  61  53 NE9       29.95S
$$
MIZ043>046-050>051-056>058-064>065-071>073-077>080-281700-
SOUTHWEST LOWER MICHIGAN

CITY           SKY/WX    TMP DP  RH WIND       PRES   REMARKS
BATTLE CREEK   MOSUNNY   77  65  66 E7        29.94S
BENTON HARBOR  CLOUDY    83  67  58 E7        29.90F
BIG RAPIDS     SUNNY     74  64  69 E12       29.96F
COLDWATER      CLOUDY    78  69  74 NE6       29.93S
FREMONT        CLOUDY    75  72  90 E9        29.94F
HOLLAND        MOSUNNY   80  68  66 E7        29.93S
GRAND RAPIDS   PTSUNNY   77  68  73 E10       29.94F
IONIA          PTSUNNY   75  65  70 NE7       29.94F
KALAMAZOO      MOSUNNY   81  67  62 CALM      29.93S
LUDINGTON      CLOUDY    74  61  63 E10       29.94F
MARSHALL       MOSUNNY   78  65  64 NE5       29.93F
MOUNT PLEASANT CLOUDY    75  60  60 NE8       29.96S
MUSKEGON       CLOUDY    83  69  62 E12       29.92F
SOUTH HAVEN    CLOUDY    81  67  63 E6        29.92S
$$
MIZ016>042-281700-
NORTHERN LOWER MICHIGAN

CITY           SKY/WX    TMP DP  RH WIND       PRES   REMARKS
ALPENA         CLOUDY    73  62  68 VRB7      29.99F
BEAVER ISLAND  MOSUNNY   72  61  69 N5        30.01S
BELLAIRE       CLOUDY    68  56  66 CALM      30.00S
CADILLAC       CLOUDY    67  58  72 NE5       29.99F
CHARLEVOIX     CLOUDY    70  60  69 N7        30.03S
FRANKFORT      CLOUDY    67  59  74 E5        29.98F
GAYLORD        CLOUDY    70  55  59 NE6       30.01F
GRAYLING       CLOUDY    71  57  61 NE5       30.01S
HARBOR SPRINGS SUNNY     71  61  70 CALM      30.00S
HOUGHTON LAKE  CLOUDY    68  57  68 NE3       30.00F
MANISTEE       CLOUDY    71  57  61 E12       29.96S
OSCODA         LGT RAIN  68  60  75 N6        29.97S
PELLSTON       SUNNY     74  57  55 VRB3      30.01S
ROGERS CITY    CLOUDY    69  60  71 N8        30.01S
TRAVERSE CITY  CLOUDY    71  56  58 NE7       29.98F
$$
MIZ007>008-015-281700-
EASTERN UPPER MICHIGAN

CITY           SKY/WX    TMP DP  RH WIND       PRES   REMARKS
KINROSS        SUNNY     72  56  57 E7        30.02S
MACKINAC ISLAN SUNNY     69  58  68 NE5       30.02R
NEWBERRY       SUNNY     73  55  53 NE9       30.02S
S. S. MARIE    SUNNY     76  56  49 N6        30.01R
MUNISING         N/A     71  62  73 NE20      30.03R
$$
MIZ004>006-011>014-085-281700-
CENTRAL UPPER MICHIGAN

CITY           SKY/WX    TMP DP  RH WIND       PRES   REMARKS
MANISTIQUE     MOSUNNY   72  63  73 CALM      30.01F
ESCANABA       SUNNY     70  61  73 NE7       30.01S
MENOMINEE      CLOUDY   N/A N/A N/A NE5       30.02S
SAWYER-GWINN   SUNNY     68  57  68 NE13      30.06R
$$
MIZ001>003-009>011-084-281700-
WESTERN UPPER MICHIGAN

CITY           SKY/WX    TMP DP  RH WIND       PRES   REMARKS
IRON MOUNTAIN  SUNNY     72  56  57 NE10      30.03R
HOUGHTON       SUNNY     69  53  56 E12       30.09R
COPPER HARBOR    N/A     64  56  75 VRB5      30.10R
IRONWOOD       MOSUNNY   72  55  56 NE8       30.04S
$$

ABBREVIATIONS USED IN REMARKS
   TC - TEMPERATURE IN CELSIUS
  WCI - WIND CHILL INDEX
   HX - HEAT INDEX
  VSB - VISIBILITY





USA.gov is the U.S. government's official web portal to all federal, state and local government web resources and services.